Tiempo cada hora Bartenevka

Hoy, 28 Febrero, Domingo

Tiempo Temperatura Precipitaciones Viento Presión Humedad
00:00 -18°C° 0.3 mm 7 mps 745 mmHg 92%
01:00 -18°C° 0.1 mm 7 mps 745 mmHg 92%
02:00 -19°C° 0.1 mm 7 mps 746 mmHg 93%
03:00 -19°C° 0.1 mm 7 mps 746 mmHg 93%
04:00 -20°C° 0.1 mm 6 mps 747 mmHg 92%
05:00 -20°C° 0.1 mm 6 mps 747 mmHg 91%
06:00 -21°C° 0.1 mm 6 mps 748 mmHg 90%
07:00 -21°C° 0 mm 6 mps 748 mmHg 90%
08:00 -22°C° 0 mm 6 mps 749 mmHg 90%
09:00 -22°C° 0 mm 6 mps 749 mmHg 90%
10:00 -21°C° 0 mm 6 mps 750 mmHg 89%
11:00 -19°C° 0 mm 5 mps 750 mmHg 89%
12:00 -18°C° 0 mm 5 mps 750 mmHg 89%
13:00 -18°C° 0 mm 5 mps 751 mmHg 88%
14:00 -17°C° 0 mm 5 mps 751 mmHg 88%
15:00 -16°C° 0 mm 4 mps 751 mmHg 88%
16:00 -17°C° 0 mm 4 mps 752 mmHg 89%
17:00 -18°C° 0 mm 4 mps 752 mmHg 90%
18:00 -18°C° 0 mm 3 mps 753 mmHg 91%
19:00 -19°C° 0 mm 3 mps 753 mmHg 92%
20:00 -19°C° 0 mm 3 mps 754 mmHg 93%
21:00 -21°C° 0 mm 3 mps 755 mmHg 93%
22:00 -21°C° 0 mm 3 mps 755 mmHg 94%
23:00 -22°C° 0 mm 3 mps 755 mmHg 94%

Mañana, 1 Marzo, Lunes

Tiempo Temperatura Precipitaciones Viento Presión Humedad
00:00 -22°C° 0 mm 3 mps 756 mmHg 95%
01:00 -22°C° 0 mm 3 mps 756 mmHg 95%
02:00 -22°C° 0 mm 3 mps 756 mmHg 95%
03:00 -22°C° 0 mm 3 mps 757 mmHg 95%
04:00 -23°C° 0 mm 3 mps 757 mmHg 95%
05:00 -23°C° 0 mm 3 mps 758 mmHg 95%
06:00 -24°C° 0 mm 3 mps 758 mmHg 96%
07:00 -23°C° 0 mm 3 mps 759 mmHg 95%
08:00 -23°C° 0 mm 3 mps 759 mmHg 94%
09:00 -22°C° 0 mm 3 mps 760 mmHg 93%
10:00 -21°C° 0 mm 3 mps 760 mmHg 93%
11:00 -19°C° 0 mm 3 mps 760 mmHg 92%
12:00 -18°C° 0 mm 3 mps 760 mmHg 91%
13:00 -18°C° 0 mm 3 mps 760 mmHg 91%
14:00 -16°C° 0 mm 2 mps 760 mmHg 92%
15:00 -16°C° 0 mm 2 mps 760 mmHg 92%
16:00 -17°C° 0 mm 2 mps 760 mmHg 92%
17:00 -18°C° 0 mm 2 mps 760 mmHg 93%
18:00 -19°C° 0 mm 2 mps 760 mmHg 93%
19:00 -18°C° 0 mm 2 mps 760 mmHg 94%
20:00 -18°C° 0 mm 2 mps 760 mmHg 95%
21:00 -19°C° 0 mm 3 mps 760 mmHg 95%
22:00 -19°C° 0 mm 3 mps 760 mmHg 95%
23:00 -19°C° 0 mm 3 mps 759 mmHg 95%

Pasado mañana, 2 Marzo, Martes

Tiempo Temperatura Precipitaciones Viento Presión Humedad
00:00 -19°C° 0 mm 3 mps 759 mmHg 95%
01:00 -20°C° 0 mm 4 mps 758 mmHg 95%
02:00 -19°C° 0 mm 4 mps 757 mmHg 95%
03:00 -19°C° 0 mm 4 mps 757 mmHg 95%
04:00 -19°C° 0 mm 5 mps 756 mmHg 95%
05:00 -18°C° 0 mm 5 mps 755 mmHg 95%
06:00 -17°C° 0 mm 6 mps 754 mmHg 95%
07:00 -15°C° 0.2 mm 6 mps 753 mmHg 95%
08:00 -14°C° 0.2 mm 7 mps 753 mmHg 94%
09:00 -13°C° 0.2 mm 8 mps 752 mmHg 94%
10:00 -11°C° 0.4 mm 8 mps 751 mmHg 94%
11:00 -10°C° 0.4 mm 8 mps 750 mmHg 94%
12:00 -8°C° 0.4 mm 8 mps 749 mmHg 95%
13:00 -7°C° 0.5 mm 8 mps 748 mmHg 95%
14:00 -6°C° 0.5 mm 8 mps 747 mmHg 95%
15:00 -6°C° 0.5 mm 8 mps 747 mmHg 96%
16:00 -5°C° 0.5 mm 8 mps 746 mmHg 96%
17:00 -4°C° 0.5 mm 7 mps 745 mmHg 96%
18:00 -4°C° 0.5 mm 6 mps 745 mmHg 96%
19:00 -4°C° 0.2 mm 6 mps 745 mmHg 96%
20:00 -2°C° 0.2 mm 5 mps 745 mmHg 96%
21:00 -2°C° 0.2 mm 5 mps 745 mmHg 96%
22:00 -3°C° 0 mm 4 mps 745 mmHg 95%
23:00 -5°C° 0 mm 4 mps 745 mmHg 94%

3 Marzo, Miércoles

Tiempo Temperatura Precipitaciones Viento Presión Humedad
00:00 -8°C° 0 mm 4 mps 745 mmHg 93%
01:00 -8°C° 0 mm 4 mps 745 mmHg 93%
02:00 -8°C° 0 mm 4 mps 745 mmHg 93%
03:00 -9°C° 0 mm 4 mps 745 mmHg 93%
04:00 -8°C° 0 mm 4 mps 745 mmHg 94%
05:00 -8°C° 0 mm 4 mps 745 mmHg 94%
06:00 -8°C° 0 mm 4 mps 745 mmHg 94%
07:00 -8°C° 0 mm 4 mps 746 mmHg 94%
08:00 -8°C° 0 mm 4 mps 746 mmHg 93%
09:00 -9°C° 0 mm 4 mps 746 mmHg 92%
10:00 -7°C° 0 mm 4 mps 747 mmHg 91%
11:00 -5°C° 0 mm 4 mps 747 mmHg 91%
12:00 -5°C° 0 mm 5 mps 747 mmHg 90%
13:00 -5°C° 0 mm 5 mps 747 mmHg 90%
14:00 -4°C° 0 mm 4 mps 747 mmHg 90%
15:00 -3°C° 0 mm 4 mps 748 mmHg 90%
16:00 -4°C° 0.1 mm 4 mps 748 mmHg 92%
17:00 -4°C° 0.1 mm 4 mps 748 mmHg 94%
18:00 -5°C° 0.1 mm 4 mps 748 mmHg 96%
19:00 -5°C° 0.1 mm 4 mps 749 mmHg 96%
20:00 -7°C° 0.1 mm 4 mps 750 mmHg 95%
21:00 -7°C° 0.1 mm 5 mps 750 mmHg 95%
22:00 -8°C° 0.1 mm 4 mps 751 mmHg 94%
23:00 -8°C° 0.1 mm 4 mps 751 mmHg 93%

4 Marzo, Jueves

Tiempo Temperatura Precipitaciones Viento Presión Humedad
00:00 -9°C° 0.1 mm 4 mps 751 mmHg 92%
01:00 -10°C° 0 mm 4 mps 752 mmHg 92%
02:00 -11°C° 0 mm 4 mps 752 mmHg 92%
03:00 -12°C° 0 mm 4 mps 753 mmHg 92%
04:00 -14°C° 0 mm 4 mps 753 mmHg 93%
05:00 -15°C° 0 mm 4 mps 754 mmHg 93%
06:00 -15°C° 0 mm 3 mps 754 mmHg 93%
07:00 -14°C° 0 mm 3 mps 755 mmHg 93%
08:00 -14°C° 0 mm 3 mps 755 mmHg 92%
09:00 -13°C° 0 mm 3 mps 756 mmHg 92%
10:00 -12°C° 0 mm 4 mps 755 mmHg 91%
11:00 -11°C° 0 mm 4 mps 755 mmHg 91%
12:00 -10°C° 0 mm 4 mps 755 mmHg 91%
13:00 -11°C° 0 mm 5 mps 755 mmHg 91%
14:00 -10°C° 0 mm 5 mps 755 mmHg 91%
15:00 -9°C° 0 mm 6 mps 755 mmHg 91%
16:00 -9°C° 0 mm 6 mps 754 mmHg 91%
17:00 -8°C° 0 mm 7 mps 754 mmHg 91%
18:00 -8°C° 0 mm 8 mps 754 mmHg 91%
19:00 -8°C° 0 mm 8 mps 753 mmHg 91%
20:00 -8°C° 0 mm 8 mps 753 mmHg 90%
21:00 -8°C° 0 mm 8 mps 753 mmHg 90%
22:00 -8°C° 0 mm 8 mps 752 mmHg 89%
23:00 -8°C° 0 mm 8 mps 752 mmHg 89%

5 Marzo, Viernes

Tiempo Temperatura Precipitaciones Viento Presión Humedad
00:00 -8°C° 0 mm 8 mps 752 mmHg 89%
01:00 -7°C° 0 mm 8 mps 751 mmHg 89%
02:00 -7°C° 0 mm 8 mps 751 mmHg 88%
03:00 -7°C° 0 mm 8 mps 751 mmHg 88%
04:00 -7°C° 0 mm 7 mps 751 mmHg 88%
05:00 -7°C° 0 mm 7 mps 751 mmHg 89%
06:00 -8°C° 0 mm 7 mps 751 mmHg 89%
07:00 -7°C° 0 mm 7 mps 751 mmHg 90%
08:00 -6°C° 0 mm 7 mps 751 mmHg 91%
09:00 -6°C° 0 mm 7 mps 751 mmHg 92%
10:00 -4°C° 0 mm 7 mps 751 mmHg 92%
11:00 -3°C° 0 mm 7 mps 751 mmHg 93%
12:00 -3°C° 0 mm 7 mps 751 mmHg 94%
13:00 -3°C° 0 mm 7 mps 751 mmHg 95%
14:00 -2°C° 0 mm 7 mps 751 mmHg 95%
15:00 -2°C° 0 mm 7 mps 751 mmHg 96%
16:00 -2°C° 0 mm 7 mps 751 mmHg 96%
17:00 -2°C° 0 mm 7 mps 751 mmHg 95%
18:00 -2°C° 0 mm 7 mps 751 mmHg 95%
19:00 -2°C° 0 mm 7 mps 751 mmHg 96%
20:00 -2°C° 0 mm 7 mps 750 mmHg 96%
21:00 -2°C° 0 mm 7 mps 750 mmHg 97%
22:00 -1°C° 0 mm 8 mps 750 mmHg 96%
23:00 -1°C° 0 mm 8 mps 749 mmHg 94%
Mostrar más

Necesitamos Su Consentimiento

Meteoprog y nuestros Proveedores de Servicios pueden almacenar y acceder a sus datos personales como cookies, identificadores de dispositivo u otras tecnologías similares de su dispositivo y procesar dichos datos para personalizar contenido y anuncios, además de ofrecer funciones de redes sociales y analizar el tráfico.

  • Almacenar y/o acceder a información en su dispositivo

    Se puede almacenar o acceder a cookies, identificadores de dispositivo u otra información de su dispositivo para los fines anteriormente indicados.

  • Anuncios y contenido personalizados, medición de anuncios y contenido, percepciones del público, y desarrollo de productos

    Los anuncios y el contenido pueden personalizarse en base a su perfil. Se pueden añadir más datos para personalizar mejor los anuncios y contenidos. Se puede medir el rendimiento de los anuncios y contenidos. Se puede obtener la percepción sobre el público que ha visto los anuncios y contenidos. Dichos datos pueden usarse para desarrollar o mejorar la experiencia del usuario, sistemas y software.

Al hacer clic en ‘Estoy De Acuerdo’ usted permitirá el uso de las cookies, identificadores de dispositivo, balizas web u otras tecnologías similares indicadas. Su configuración puede cambiarse desde el navegador de su dispositivo.

Para ciertos fines, los intereses legítimos pueden ser considerados por encima del consentimiento. Puede leer más sobre ello en nuestra Política de Privacidad y Cookies.